| time (UTC) | temp F | wind direction | speed MPH | gust MPH | rain 1hr in | rain 24hr in | rain mn in | humidity % | barometer mb |
| 20260906223903 | 78 | 55 | 5.0 | 12.0 | 0.00 | 0.00 | 0.00 | 1015.3 | |
| 20260906223403 | 78 | 72 | 5.0 | 14.0 | 0.00 | 0.00 | 0.00 | 1015.3 | |
| 20260906222903 | 78 | 65 | 5.0 | 14.0 | 0.00 | 0.00 | 0.00 | 1014.9 | |
| 20260906222403 | 79 | 73 | 5.0 | 10.0 | 0.00 | 0.00 | 0.00 | 1015.3 | |
| 20260906221903 | 79 | 81 | 3.0 | 11.0 | 0.00 | 0.00 | 0.00 | 1015.6 | |
| 20260906221403 | 79 | 55 | 2.0 | 11.0 | 0.00 | 0.00 | 0.00 | 1015.3 | |
| 20260906220903 | 78 | 43 | 4.0 | 9.0 | 0.00 | 0.00 | 0.00 | 1015.3 | |
| 20260906220403 | 78 | 47 | 3.0 | 8.0 | 0.00 | 0.00 | 0.00 | 1015.6 | |
| 20260906215903 | 78 | 76 | 5.0 | 8.0 | 0.00 | 0.00 | 0.00 | 1015.6 | |
| 20260906215403 | 78 | 86 | 4.0 | 9.0 | 0.00 | 0.00 | 0.00 | 1015.6 | |
| 20260906214903 | 78 | 70 | 4.0 | 9.0 | 0.00 | 0.00 | 0.00 | 1015.6 | |
| 20260906214402 | 78 | 55 | 4.0 | 11.0 | 0.00 | 0.00 | 0.00 | 1015.3 | |
| 20260906213903 | 77 | 61 | 3.0 | 12.0 | 0.00 | 0.00 | 0.00 | 1015.3 | |
| 20260906213403 | 78 | 55 | 6.0 | 12.0 | 0.00 | 0.00 | 0.00 | 1015.6 | |
| 20260906212402 | 78 | 69 | 5.0 | 10.0 | 0.00 | 0.00 | 0.00 | 1016.0 | |
| 20260906211903 | 78 | 69 | 6.0 | 12.0 | 0.00 | 0.00 | 0.00 | 1016.0 | |
| 20260906211424 | 78 | 56 | 4.0 | 12.0 | 0.00 | 0.00 | 0.00 | 1015.6 | |
| 20260906210903 | 78 | 62 | 5.0 | 11.0 | 0.00 | 0.00 | 0.00 | 1015.3 | |
| 20260906210403 | 78 | 35 | 5.0 | 11.0 | 0.00 | 0.00 | 0.00 | 1016.0 | |
| 20260906205924 | 77 | 65 | 4.0 | 10.0 | 0.00 | 0.00 | 0.00 | 1016.0 | |
| 20260906205403 | 79 | 31 | 5.0 | 10.0 | 0.00 | 0.00 | 0.00 | 1016.0 | |
| 20260906204902 | 79 | 68 | 3.0 | 8.0 | 0.00 | 0.00 | 0.00 | 1016.3 | |
| 20260906204403 | 78 | 45 | 3.0 | 12.0 | 0.00 | 0.00 | 0.00 | 1016.0 | |
| 20260906203902 | 78 | 83 | 4.0 | 12.0 | 0.00 | 0.00 | 0.00 | 1016.0 | |
| 20260906203403 | 78 | 43 | 5.0 | 12.0 | 0.00 | 0.00 | 0.00 | 1016.0 | |
| 20260906202903 | 78 | 67 | 3.0 | 12.0 | 0.00 | 0.00 | 0.00 | 1015.3 | |
| 20260906202403 | 78 | 35 | 5.0 | 12.0 | 0.00 | 0.00 | 0.00 | 1015.3 | |
| 20260906201903 | 78 | 85 | 4.0 | 10.0 | 0.00 | 0.00 | 0.00 | 1015.6 | |
| 20260906201403 | 77 | 45 | 3.0 | 10.0 | 0.00 | 0.00 | 0.00 | 1015.3 | |
| 20260906200924 | 77 | 97 | 5.0 | 10.0 | 0.00 | 0.00 | 0.00 | 1015.6 | |
| 20260906200403 | 77 | 56 | 4.0 | 10.0 | 0.00 | 0.00 | 0.00 | 1015.3 | |
| 20260906195903 | 77 | 50 | 4.0 | 10.0 | 0.00 | 0.00 | 0.00 | 1016.0 | |
| 20260906195403 | 77 | 69 | 3.0 | 15.0 | 0.00 | 0.00 | 0.00 | 1015.3 | |
| 20260906194903 | 77 | 58 | 6.0 | 15.0 | 0.00 | 0.00 | 0.00 | 1016.0 | |
| 20260906194402 | 77 | 56 | 5.0 | 14.0 | 0.00 | 0.00 | 0.00 | 1015.6 | |
| 20260906193924 | 77 | 74 | 6.0 | 14.0 | 0.00 | 0.00 | 0.00 | 1015.6 | |
| 20260906193403 | 77 | 81 | 4.0 | 12.0 | 0.00 | 0.00 | 0.00 | 1015.6 | |
| 20260906192903 | 77 | 36 | 5.0 | 13.0 | 0.00 | 0.00 | 0.00 | 1016.3 | |
| 20260906192403 | 77 | 71 | 5.0 | 13.0 | 0.00 | 0.00 | 0.00 | 1016.0 | |
| 20260906191903 | 77 | 342 | 3.0 | 8.0 | 0.00 | 0.00 | 0.00 | 1016.3 | |
| 20260906191403 | 77 | 30 | 5.0 | 10.0 | 0.00 | 0.00 | 0.00 | 1015.6 | |
| 20260906190903 | 77 | 44 | 6.0 | 18.0 | 0.00 | 0.00 | 0.00 | 1016.3 | |
| 20260906190403 | 77 | 31 | 4.0 | 18.0 | 0.00 | 0.00 | 0.00 | 1015.6 | |
| 20260906185903 | 77 | 63 | 4.0 | 10.0 | 0.00 | 0.00 | 0.00 | 1016.0 | |
| 20260906185403 | 77 | 64 | 5.0 | 9.0 | 0.00 | 0.00 | 0.00 | 1015.6 | |
| 20260906184903 | 77 | 49 | 3.0 | 9.0 | 0.00 | 0.00 | 0.00 | 1015.6 | |
| 20260906184403 | 77 | 64 | 5.0 | 11.0 | 0.00 | 0.00 | 0.00 | 1015.3 | |
| 20260906183924 | 77 | 38 | 4.0 | 11.0 | 0.00 | 0.00 | 0.00 | 1016.0 | |
| 20260906183424 | 76 | 45 | 5.0 | 10.0 | 0.00 | 0.00 | 0.00 | 1016.3 | |
| 20260906182903 | 76 | 99 | 6.0 | 14.0 | 0.00 | 0.00 | 0.00 | 1016.0 | |
| 20260906182403 | 76 | 38 | 6.0 | 14.0 | 0.00 | 0.00 | 0.00 | 1016.3 | |
| 20260906181903 | 76 | 41 | 5.0 | 13.0 | 0.00 | 0.00 | 0.00 | 1016.3 | |
| 20260906181404 | 76 | 69 | 5.0 | 14.0 | 0.00 | 0.00 | 0.00 | 1015.6 | |
| 20260906180903 | 76 | 35 | 4.0 | 14.0 | 0.00 | 0.00 | 0.00 | 1016.6 | |
| 20260906180402 | 76 | 46 | 5.0 | 15.0 | 0.00 | 0.00 | 0.00 | 1016.3 | |
| 20260906175903 | 76 | 87 | 5.0 | 15.0 | 0.00 | 0.00 | 0.00 | 1016.0 | |
| 20260906175402 | 75 | 92 | 3.0 | 13.0 | 0.00 | 0.00 | 0.00 | 1016.0 | |
| 20260906174903 | 75 | 47 | 7.0 | 13.0 | 0.00 | 0.00 | 0.00 | 1016.6 | |
| 20260906173424 | 75 | 71 | 5.0 | 12.0 | 0.00 | 0.00 | 0.00 | 1016.3 | |
| 20260906172903 | 75 | 3 | 4.0 | 12.0 | 0.00 | 0.00 | 0.00 | 1016.6 | |
| 20260906172403 | 75 | 53 | 4.0 | 9.0 | 0.00 | 0.00 | 0.00 | 1015.6 | |
| 20260906171903 | 75 | 45 | 4.0 | 9.0 | 0.00 | 0.00 | 0.00 | 1016.3 | |
| 20260906171403 | 74 | 332 | 2.0 | 8.0 | 0.00 | 0.00 | 0.00 | 1016.0 | |
| 20260906170903 | 74 | 70 | 4.0 | 10.0 | 0.00 | 0.00 | 0.00 | 1016.3 | |
| 20260906170403 | 74 | 17 | 4.0 | 12.0 | 0.00 | 0.00 | 0.00 | 1016.3 | |
| 20260906165903 | 74 | 53 | 6.0 | 12.0 | 0.00 | 0.00 | 0.00 | 1016.6 | |
| 20260906165403 | 74 | 81 | 4.0 | 11.0 | 0.00 | 0.00 | 0.00 | 1016.6 | |
| 20260906164903 | 74 | 100 | 5.0 | 11.0 | 0.00 | 0.00 | 0.00 | 1017.0 | |
| 20260906164446 | 74 | 79 | 5.0 | 11.0 | 0.00 | 0.00 | 0.00 | 1017.0 | |
| 20260906163903 | 73 | 62 | 5.0 | 14.0 | 0.00 | 0.00 | 0.00 | 1016.6 | |
| 20260906163403 | 74 | 57 | 5.0 | 14.0 | 0.00 | 0.00 | 0.00 | 1017.0 | |
| 20260906162903 | 73 | 73 | 4.0 | 10.0 | 0.00 | 0.00 | 0.00 | 1016.6 | |
| 20260906162402 | 73 | 56 | 4.0 | 13.0 | 0.00 | 0.00 | 0.00 | 1016.3 | |
| 20260906161903 | 73 | 97 | 4.0 | 13.0 | 0.00 | 0.00 | 0.00 | 1016.6 | |
| 20260906161424 | 73 | 11 | 3.0 | 12.0 | 0.00 | 0.00 | 0.00 | 1017.0 | |
| 20260906160903 | 73 | 43 | 3.0 | 12.0 | 0.00 | 0.00 | 0.00 | 1016.3 | |
| 20260906160445 | 72 | 88 | 5.0 | 10.0 | 0.00 | 0.00 | 0.00 | 1016.6 | |
| 20260906155924 | 72 | 83 | 6.0 | 10.0 | 0.00 | 0.00 | 0.00 | 1016.3 | |
| 20260906155403 | 73 | 48 | 4.0 | 9.0 | 0.00 | 0.00 | 0.00 | 1016.6 | |
| 20260906154903 | 72 | 56 | 4.0 | 14.0 | 0.00 | 0.00 | 0.00 | 1017.0 | |
| 20260906154423 | 72 | 57 | 4.0 | 14.0 | 0.00 | 0.00 | 0.00 | 1016.6 | |
| 20260906152903 | 72 | 59 | 3.0 | 13.0 | 0.00 | 0.00 | 0.00 | 1016.3 | |
| 20260906152403 | 72 | 49 | 3.0 | 7.0 | 0.00 | 0.00 | 0.00 | 1016.3 | |
| 20260906151903 | 71 | 90 | 3.0 | 9.0 | 0.00 | 0.00 | 0.00 | 1016.0 | |
| 20260906151403 | 71 | 70 | 3.0 | 9.0 | 0.00 | 0.00 | 0.00 | 1016.0 | |
| 20260906150903 | 71 | 101 | 3.0 | 10.0 | 0.00 | 0.00 | 0.00 | 1015.6 | |
| 20260906150404 | 71 | 64 | 2.0 | 10.0 | 0.00 | 0.00 | 0.00 | 1016.3 | |
| 20260906145902 | 71 | 81 | 6.0 | 11.0 | 0.00 | 0.00 | 0.00 | 1016.3 | |
| 20260906145403 | 71 | 23 | 4.0 | 13.0 | 0.00 | 0.00 | 0.00 | 1017.0 | |
| 20260906144903 | 70 | 45 | 4.0 | 13.0 | 0.00 | 0.00 | 0.00 | 1016.3 | |
| 20260906144403 | 70 | 66 | 4.0 | 11.0 | 0.00 | 0.00 | 0.00 | 1016.6 | |
| 20260906143904 | 70 | 70 | 6.0 | 11.0 | 0.00 | 0.00 | 0.00 | 1016.6 | |
| 20260906143403 | 70 | 74 | 5.0 | 11.0 | 0.00 | 0.00 | 0.00 | 1016.6 | |
| 20260906142903 | 70 | 35 | 4.0 | 13.0 | 0.00 | 0.00 | 0.00 | 1016.3 | |
| 20260906142403 | 70 | 42 | 6.0 | 13.0 | 0.00 | 0.00 | 0.00 | 1016.3 | |
| 20260906141903 | 69 | 85 | 5.0 | 11.0 | 0.00 | 0.00 | 0.00 | 1016.0 | |
| 20260906141424 | 69 | 66 | 5.0 | 11.0 | 0.00 | 0.00 | 0.00 | 1016.3 | |
| 20260906140903 | 69 | 89 | 4.0 | 9.0 | 0.00 | 0.00 | 0.00 | 1016.0 | |
| 20260906140403 | 69 | 91 | 4.0 | 9.0 | 0.00 | 0.00 | 0.00 | 1016.0 | |
| 20260906135903 | 69 | 90 | 3.0 | 9.0 | 0.00 | 0.00 | 0.00 | 1016.0 | |
| 20260906135403 | 69 | 92 | 3.0 | 10.0 | 0.00 | 0.00 | 0.00 | 1016.3 | |
| 20260906134903 | 69 | 63 | 3.0 | 10.0 | 0.00 | 0.00 | 0.00 | 1016.0 | |
| 20260906134426 | 69 | 37 | 3.0 | 7.0 | 0.00 | 0.00 | 0.00 | 1016.3 | |
| 20260906133925 | 68 | 38 | 3.0 | 7.0 | 0.00 | 0.00 | 0.00 | 1016.0 | |
| 20260906133423 | 68 | 83 | 2.0 | 7.0 | 0.00 | 0.00 | 0.00 | 1016.0 | |
| 20260906132903 | 68 | 31 | 3.0 | 8.0 | 0.00 | 0.00 | 0.00 | 1015.6 | |
| 20260906132402 | 68 | 51 | 2.0 | 9.0 | 0.00 | 0.00 | 0.00 | 1016.0 | |
| 20260906131903 | 67 | 71 | 4.0 | 9.0 | 0.00 | 0.00 | 0.00 | 1016.0 | |
| 20260906131403 | 67 | 72 | 4.0 | 9.0 | 0.00 | 0.00 | 0.00 | 1015.6 | |
| 20260906130903 | 67 | 81 | 4.0 | 9.0 | 0.00 | 0.00 | 0.00 | 1016.0 | |
| 20260906130403 | 67 | 58 | 4.0 | 10.0 | 0.00 | 0.00 | 0.00 | 1016.0 | |
| 20260906125902 | 67 | 62 | 4.0 | 10.0 | 0.00 | 0.00 | 0.00 | 1016.0 | |
| 20260906125403 | 67 | 70 | 4.0 | 7.0 | 0.00 | 0.00 | 0.00 | 1016.0 | |
| 20260906124902 | 66 | 34 | 3.0 | 7.0 | 0.00 | 0.00 | 0.00 | 1015.6 | |
| 20260906124403 | 66 | 80 | 3.0 | 5.0 | 0.00 | 0.00 | 0.00 | 1015.6 | |
| 20260906123903 | 66 | 81 | 2.0 | 5.0 | 0.00 | 0.00 | 0.00 | 1015.6 | |
| 20260906123424 | 66 | 57 | 2.0 | 5.0 | 0.00 | 0.00 | 0.00 | 1014.9 | |
| 20260906122905 | 66 | 41 | 3.0 | 5.0 | 0.00 | 0.00 | 0.00 | 1014.9 | |
| 20260906122403 | 66 | 60 | 2.0 | 5.0 | 0.00 | 0.00 | 0.00 | 1014.9 | |
| 20260906121903 | 66 | 26 | 2.0 | 4.0 | 0.00 | 0.00 | 0.00 | 1014.9 | |
| 20260906121403 | 65 | 40 | 2.0 | 6.0 | 0.00 | 0.00 | 0.00 | 1014.9 | |
| 20260906120903 | 65 | 18 | 1.0 | 6.0 | 0.00 | 0.00 | 0.00 | 1014.9 | |
| 20260906120403 | 65 | 6 | 1.0 | 6.0 | 0.00 | 0.00 | 0.00 | 1014.3 | |
| 20260906115903 | 65 | 352 | 0.0 | 6.0 | 0.00 | 0.00 | 0.00 | 1014.6 | |
| 20260906115403 | 65 | 25 | 1.0 | 6.0 | 0.00 | 0.00 | 0.00 | 1014.3 | |
| 20260906114903 | 65 | 39 | 1.0 | 3.0 | 0.00 | 0.00 | 0.00 | 1014.3 | |
| 20260906114404 | 65 | 5 | 0.0 | 6.0 | 0.00 | 0.00 | 0.00 | 1014.3 | |
| 20260906113903 | 65 | 32 | 1.0 | 6.0 | 0.00 | 0.00 | 0.00 | 1014.3 | |
| 20260906113403 | 65 | 9 | 0.0 | 6.0 | 0.00 | 0.00 | 0.00 | 1014.3 | |
| 20260906112903 | 65 | 34 | 0.0 | 6.0 | 0.00 | 0.00 | 0.00 | 1014.3 | |
| 20260906112403 | 65 | 27 | 1.0 | 5.0 | 0.00 | 0.00 | 0.00 | 1014.6 | |
| 20260906111945 | 65 | 55 | 2.0 | 4.0 | 0.00 | 0.00 | 0.00 | 1014.6 | |
| 20260906111403 | 65 | 353 | 1.0 | 6.0 | 0.00 | 0.00 | 0.00 | 1014.3 | |
| 20260906110903 | 66 | 352 | 0.0 | 6.0 | 0.00 | 0.00 | 0.00 | 1013.9 | |
| 20260906110403 | 66 | 34 | 2.0 | 6.0 | 0.00 | 0.00 | 0.00 | 1014.3 | |
| 20260906105903 | 66 | 35 | 1.0 | 6.0 | 0.00 | 0.00 | 0.00 | 1014.3 | |
| 20260906105403 | 65 | 32 | 0.0 | 6.0 | 0.00 | 0.00 | 0.00 | 1014.3 | |
| 20260906104902 | 65 | 40 | 0.0 | 6.0 | 0.00 | 0.00 | 0.00 | 1014.3 | |
| 20260906104403 | 65 | 345 | 0.0 | 3.0 | 0.00 | 0.00 | 0.00 | 1014.3 | |
| 20260906103903 | 66 | 39 | 1.0 | 6.0 | 0.00 | 0.00 | 0.00 | 1014.3 | |
| 20260906103403 | 66 | 55 | 2.0 | 6.0 | 0.00 | 0.00 | 0.00 | 1013.9 | |
| 20260906102925 | 66 | 359 | 1.0 | 6.0 | 0.00 | 0.00 | 0.00 | 1013.9 | |
| 20260906102403 | 66 | 54 | 2.0 | 5.0 | 0.00 | 0.00 | 0.00 | 1014.3 | |
| 20260906100903 | 66 | 57 | 3.0 | 8.0 | 0.00 | 0.00 | 0.00 | 1014.3 | |
| 20260906100403 | 66 | 63 | 2.0 | 8.0 | 0.00 | 0.00 | 0.00 | 1014.3 | |
| 20260906095903 | 66 | 52 | 2.0 | 7.0 | 0.00 | 0.00 | 0.00 | 1013.9 | |
| 20260906095403 | 66 | 22 | 2.0 | 7.0 | 0.00 | 0.00 | 0.00 | 1013.9 | |
| 20260906094903 | 66 | 51 | 2.0 | 6.0 | 0.00 | 0.00 | 0.00 | 1013.6 | |
| 20260906094403 | 66 | 56 | 2.0 | 6.0 | 0.00 | 0.00 | 0.00 | 1013.6 | |
| 20260906093903 | 66 | 40 | 3.0 | 6.0 | 0.00 | 0.00 | 0.00 | 1013.9 | |
| 20260906093403 | 66 | 54 | 1.0 | 5.0 | 0.00 | 0.00 | 0.00 | 1014.3 | |
| 20260906092903 | 66 | 40 | 2.0 | 6.0 | 0.00 | 0.00 | 0.00 | 1013.9 | |
| 20260906092404 | 66 | 7 | 0.0 | 6.0 | 0.00 | 0.00 | 0.00 | 1014.3 | |
| 20260906090902 | 66 | 317 | 0.0 | 6.0 | 0.00 | 0.00 | 0.00 | 1014.3 | |
| 20260906090403 | 66 | 48 | 1.0 | 4.0 | 0.00 | 0.00 | 0.00 | 1014.3 | |
| 20260906085903 | 66 | 59 | 1.0 | 5.0 | 0.00 | 0.00 | 0.00 | 1013.9 | |
| 20260906085403 | 66 | 53 | 2.0 | 5.0 | 0.00 | 0.00 | 0.00 | 1013.9 | |
| 20260906084902 | 66 | 20 | 1.0 | 4.0 | 0.00 | 0.00 | 0.00 | 1013.2 | |
| 20260906084403 | 67 | 41 | 0.0 | 5.0 | 0.00 | 0.00 | 0.00 | 1013.6 | |
| 20260906083902 | 67 | 50 | 1.0 | 5.0 | 0.00 | 0.00 | 0.00 | 1013.6 | |
| 20260906083403 | 67 | 29 | 1.0 | 5.0 | 0.00 | 0.00 | 0.00 | 1013.9 | |
| 20260906082903 | 67 | 52 | 2.0 | 5.0 | 0.00 | 0.00 | 0.00 | 1013.6 | |
| 20260906082403 | 67 | 50 | 2.0 | 5.0 | 0.00 | 0.00 | 0.00 | 1013.2 | |
| 20260906081903 | 67 | 57 | 3.0 | 5.0 | 0.00 | 0.00 | 0.00 | 1013.9 | |
| 20260906080403 | 67 | 34 | 1.0 | 8.0 | 0.00 | 0.00 | 0.00 | 1014.3 | |
| 20260906075903 | 67 | 50 | 2.0 | 8.0 | 0.00 | 0.00 | 0.00 | 1013.2 | |
| 20260906075424 | 67 | 49 | 2.0 | 8.0 | 0.00 | 0.00 | 0.00 | 1013.6 | |
| 20260906074903 | 67 | 62 | 3.0 | 8.0 | 0.00 | 0.00 | 0.00 | 1014.3 | |
| 20260906074424 | 67 | 74 | 2.0 | 8.0 | 0.00 | 0.00 | 0.00 | 1013.6 | |
| 20260906073903 | 68 | 52 | 3.0 | 8.0 | 0.00 | 0.00 | 0.00 | 1013.9 | |
| 20260906073403 | 67 | 34 | 3.0 | 7.0 | 0.00 | 0.00 | 0.00 | 1013.6 | |
| 20260906071903 | 68 | 55 | 2.0 | 5.0 | 0.00 | 0.00 | 0.00 | 1013.9 | |
| 20260906071403 | 68 | 53 | 2.0 | 5.0 | 0.00 | 0.00 | 0.00 | 1013.9 | |
| 20260906070903 | 68 | 38 | 1.0 | 5.0 | 0.00 | 0.00 | 0.00 | 1014.3 | |
| 20260906070403 | 68 | 79 | 2.0 | 6.0 | 0.00 | 0.00 | 0.00 | 1014.3 | |
| 20260906065903 | 68 | 5 | 1.0 | 6.0 | 0.00 | 0.00 | 0.00 | 1013.6 | |
| 20260906065402 | 68 | 63 | 2.0 | 5.0 | 0.00 | 0.00 | 0.00 | 1013.2 | |
| 20260906064903 | 68 | 49 | 3.0 | 6.0 | 0.00 | 0.00 | 0.00 | 1013.6 | |
| 20260906064403 | 68 | 43 | 2.0 | 6.0 | 0.00 | 0.00 | 0.00 | 1013.6 | |
| 20260906063903 | 68 | 57 | 2.0 | 6.0 | 0.00 | 0.00 | 0.00 | 1013.9 | |
| 20260906063424 | 69 | 52 | 2.0 | 6.0 | 0.00 | 0.00 | 0.00 | 1013.9 | |
| 20260906062903 | 69 | 68 | 2.0 | 8.0 | 0.00 | 0.00 | 0.00 | 1014.3 | |
| 20260906062424 | 69 | 42 | 3.0 | 8.0 | 0.00 | 0.00 | 0.00 | 1014.3 | |
| 20260906061924 | 69 | 14 | 2.0 | 7.0 | 0.00 | 0.00 | 0.00 | 1013.9 | |
| 20260906061424 | 69 | 62 | 3.0 | 6.0 | 0.00 | 0.00 | 0.00 | 1013.9 | |
| 20260906060903 | 69 | 65 | 2.0 | 5.0 | 0.00 | 0.00 | 0.00 | 1013.6 | |
| 20260906060402 | 69 | 48 | 1.0 | 6.0 | 0.00 | 0.00 | 0.00 | 1014.3 | |
| 20260906055903 | 69 | 22 | 2.0 | 6.0 | 0.00 | 0.00 | 0.00 | 1013.6 | |
| 20260906055423 | 69 | 16 | 2.0 | 7.0 | 0.00 | 0.00 | 0.00 | 1013.9 | |
| 20260906054924 | 69 | 37 | 2.0 | 7.0 | 0.00 | 0.00 | 0.00 | 1013.2 | |
| 20260906054402 | 69 | 42 | 3.0 | 6.0 | 0.00 | 0.00 | 0.00 | 1013.6 | |
| 20260906053903 | 69 | 72 | 2.0 | 6.0 | 0.00 | 0.00 | 0.00 | 1013.9 | |
| 20260906053403 | 69 | 68 | 2.0 | 5.0 | 0.00 | 0.00 | 0.00 | 1013.6 | |
| 20260906052904 | 70 | 68 | 2.0 | 5.0 | 0.00 | 0.00 | 0.00 | 1013.9 | |
| 20260906052402 | 70 | 79 | 1.0 | 3.0 | 0.00 | 0.00 | 0.00 | 1013.2 | |
| 20260906051903 | 70 | 65 | 1.0 | 5.0 | 0.00 | 0.00 | 0.00 | 1012.9 | |
| 20260906051403 | 70 | 77 | 3.0 | 6.0 | 0.00 | 0.00 | 0.00 | 1013.2 | |
| 20260906050924 | 70 | 57 | 2.0 | 6.0 | 0.00 | 0.00 | 0.00 | 1013.6 | |
| 20260906050403 | 70 | 53 | 3.0 | 6.0 | 0.00 | 0.00 | 0.00 | 1013.2 | |
| 20260906045903 | 70 | 62 | 1.0 | 6.0 | 0.00 | 0.00 | 0.00 | 1012.9 | |
| 20260906044403 | 70 | 43 | 2.0 | 7.0 | 0.00 | 0.00 | 0.00 | 1012.9 | |
| 20260906043902 | 71 | 49 | 4.0 | 7.0 | 0.00 | 0.00 | 0.00 | 1012.9 | |
| 20260906043424 | 71 | 29 | 1.0 | 5.0 | 0.00 | 0.00 | 0.00 | 1012.6 | |
| 20260906042903 | 71 | 42 | 2.0 | 5.0 | 0.00 | 0.00 | 0.00 | 1012.6 | |
| 20260906042403 | 71 | 23 | 1.0 | 5.0 | 0.00 | 0.00 | 0.00 | 1012.9 | |
| 20260906041903 | 71 | 6 | 2.0 | 5.0 | 0.00 | 0.00 | 0.00 | 1012.9 | |
| 20260906041424 | 72 | 17 | 1.0 | 4.0 | 0.00 | 0.00 | 0.00 | 1013.2 | |
| 20260906040924 | 72 | 23 | 0.0 | 6.0 | 0.00 | 0.00 | 0.00 | 1012.6 | |
| 20260906040403 | 72 | 72 | 2.0 | 6.0 | 0.00 | 0.00 | 0.00 | 1012.6 | |
| 20260906035924 | 72 | 63 | 2.0 | 6.0 | 0.00 | 0.00 | 0.00 | 1012.6 | |
| 20260906035425 | 72 | 54 | 3.0 | 9.0 | 0.00 | 0.00 | 0.00 | 1012.9 | |
| 20260906034924 | 72 | 73 | 2.0 | 9.0 | 0.00 | 0.00 | 0.00 | 1012.9 | |
| 20260906034424 | 72 | 60 | 2.0 | 9.0 | 0.00 | 0.00 | 0.00 | 1012.6 | |
| 20260906033903 | 73 | 34 | 3.0 | 5.0 | 0.00 | 0.00 | 0.00 | 1013.2 | |
| 20260906033403 | 73 | 92 | 0.0 | 6.0 | 0.00 | 0.00 | 0.00 | 1012.6 | |
| 20260906032903 | 73 | 81 | 2.0 | 7.0 | 0.00 | 0.00 | 0.00 | 1013.2 | |
| 20260906032403 | 73 | 59 | 4.0 | 10.0 | 0.00 | 0.00 | 0.00 | 1013.2 | |
| 20260906031924 | 73 | 55 | 3.0 | 10.0 | 0.00 | 0.00 | 0.00 | 1013.6 | |
| 20260906031403 | 73 | 40 | 2.0 | 9.0 | 0.00 | 0.00 | 0.00 | 1013.2 | |
| 20260906030903 | 74 | 53 | 3.0 | 9.0 | 0.00 | 0.00 | 0.00 | 1013.2 | |
| 20260906030403 | 74 | 29 | 3.0 | 7.0 | 0.00 | 0.00 | 0.00 | 1013.2 | |
| 20260906025903 | 74 | 46 | 2.0 | 7.0 | 0.00 | 0.00 | 0.00 | 1012.9 | |
| 20260906025403 | 74 | 38 | 1.0 | 7.0 | 0.00 | 0.00 | 0.00 | 1012.9 | |
| 20260906024903 | 74 | 54 | 3.0 | 7.0 | 0.00 | 0.00 | 0.00 | 1012.9 | |
| 20260906024404 | 74 | 46 | 3.0 | 9.0 | 0.00 | 0.00 | 0.00 | 1012.9 | |
| 20260906023924 | 74 | 43 | 4.0 | 9.0 | 0.00 | 0.00 | 0.00 | 1013.2 | |
| 20260906023403 | 74 | 34 | 2.0 | 9.0 | 0.00 | 0.00 | 0.00 | 1012.9 | |
| 20260906022924 | 74 | 67 | 1.0 | 7.0 | 0.00 | 0.00 | 0.00 | 1012.9 | |
| 20260906022403 | 74 | 34 | 1.0 | 7.0 | 0.00 | 0.00 | 0.00 | 1013.2 | |
| 20260906021902 | 74 | 39 | 2.0 | 7.0 | 0.00 | 0.00 | 0.00 | 1013.6 | |
| 20260906021403 | 74 | 31 | 2.0 | 7.0 | 0.00 | 0.00 | 0.00 | 1013.2 | |
| 20260906020903 | 74 | 23 | 2.0 | 6.0 | 0.00 | 0.00 | 0.00 | 1013.2 | |
| 20260906020403 | 74 | 37 | 1.0 | 6.0 | 0.00 | 0.00 | 0.00 | 1013.6 | |
| 20260906015903 | 74 | 9 | 0.0 | 6.0 | 0.00 | 0.00 | 0.00 | 1012.9 | |
| 20260906015403 | 74 | 36 | 0.0 | 6.0 | 0.00 | 0.00 | 0.00 | 1013.2 | |
| 20260906014903 | 74 | 34 | 0.0 | 6.0 | 0.00 | 0.00 | 0.00 | 1013.2 | |
| 20260906014403 | 74 | 73 | 0.0 | 6.0 | 0.00 | 0.00 | 0.00 | 1012.9 | |
| 20260906013903 | 75 | 54 | 0.0 | 6.0 | 0.00 | 0.00 | 0.00 | 1013.2 | |
| 20260906013403 | 75 | 349 | 1.0 | 6.0 | 0.00 | 0.00 | 0.00 | 1012.9 | |
| 20260906012902 | 75 | 59 | 0.0 | 3.0 | 0.00 | 0.00 | 0.00 | 1012.9 | |
| 20260906012403 | 75 | 40 | 1.0 | 5.0 | 0.00 | 0.00 | 0.00 | 1012.2 | |
| 20260906011902 | 75 | 62 | 1.0 | 5.0 | 0.00 | 0.00 | 0.00 | 1012.6 | |
| 20260906011424 | 75 | 44 | 1.0 | 3.0 | 0.00 | 0.00 | 0.00 | 1012.2 | |
| 20260906010903 | 75 | 21 | 0.0 | 4.0 | 0.00 | 0.00 | 0.00 | 1012.6 | |
| 20260906010402 | 75 | 64 | 2.0 | 4.0 | 0.00 | 0.00 | 0.00 | 1012.9 | |
| 20260906005903 | 75 | 69 | 2.0 | 4.0 | 0.00 | 0.00 | 0.00 | 1012.6 | |
| 20260906005402 | 75 | 71 | 0.0 | 4.0 | 0.00 | 0.00 | 0.00 | 1012.6 | |
| 20260906004903 | 75 | 64 | 1.0 | 3.0 | 0.00 | 0.00 | 0.00 | 1012.2 | |
| 20260906004424 | 75 | 87 | 1.0 | 5.0 | 0.00 | 0.00 | 0.00 | 1012.2 | |
| 20260906003924 | 76 | 356 | 0.0 | 6.0 | 0.00 | 0.00 | 0.00 | 1012.2 | |
| 20260906003424 | 76 | 36 | 0.0 | 6.0 | 0.00 | 0.00 | 0.00 | 1012.2 | |
| 20260906002904 | 76 | 67 | 1.0 | 6.0 | 0.00 | 0.00 | 0.00 | 1012.2 | |
| 20260906002403 | 76 | 59 | 3.0 | 6.0 | 0.00 | 0.00 | 0.00 | 1011.9 | |
| 20260906001903 | 76 | 17 | 1.0 | 6.0 | 0.00 | 0.00 | 0.00 | 1012.2 | |
| 20260906001403 | 76 | 55 | 3.0 | 10.0 | 0.00 | 0.00 | 0.00 | 1011.9 | |
| 20260906000903 | 77 | 70 | 2.0 | 10.0 | 0.00 | 0.00 | 0.00 | 1012.2 | |
| 20260906000403 | 77 | 35 | 2.0 | 6.0 | 0.00 | 0.00 | 0.00 | 1012.2 | |
| 20260905235923 | 77 | 56 | 1.0 | 6.0 | 0.00 | 0.00 | 0.00 | 1011.9 | |
| 20260905235403 | 77 | 62 | 0.0 | 6.0 | 0.00 | 0.00 | 0.00 | 1012.2 | |
| 20260905234903 | 77 | 337 | 0.0 | 6.0 | 0.00 | 0.00 | 0.00 | 1012.9 | |
| 20260905234424 | 76 | 93 | 1.0 | 6.0 | 0.00 | 0.00 | 0.00 | 1011.9 | |
| 20260905233902 | 76 | 225 | 0.0 | 6.0 | 0.00 | 0.00 | 0.00 | 1012.2 | |
| 20260905233404 | 76 | 293 | 0.0 | 6.0 | 0.00 | 0.00 | 0.00 | 1011.9 | |
| 20260905232903 | 77 | 65 | 0.0 | 6.0 | 0.00 | 0.00 | 0.00 | 1011.5 | |
| 20260905232403 | 77 | 55 | 1.0 | 6.0 | 0.00 | 0.00 | 0.00 | 1011.9 | |
| 20260905231903 | 77 | 56 | 0.0 | 6.0 | 0.00 | 0.00 | 0.00 | 1012.2 | |
| 20260905231403 | 77 | 345 | 0.0 | 6.0 | 0.00 | 0.00 | 0.00 | 1011.9 | |
| 20260905230903 | 77 | 35 | 0.0 | 6.0 | 0.00 | 0.00 | 0.00 | 1011.9 | |
| 20260905230425 | 77 | 2 | 0.0 | 6.0 | 0.00 | 0.00 | 0.00 | 1012.2 | |
| 20260905225903 | 77 | 337 | 0.0 | 6.0 | 0.00 | 0.00 | 0.00 | 1011.5 | |
| 20260905225403 | 77 | 81 | 0.0 | 7.0 | 0.00 | 0.00 | 0.00 | 1011.5 | |
| 20260905224924 | 77 | 335 | 0.0 | 7.0 | 0.00 | 0.00 | 0.00 | 1011.9 | |
| 20260905224403 | 79 | 287 | 3.0 | 6.0 | 0.00 | 0.00 | 0.00 | 1011.9 |